North Bennington, VT

4:09 AM EST on February 12, 2016 (GMT -0500)
Morse State

Weather History for KDDH - November, 2014

Change the Weather History Date:

Saturday, November 1, 2014

  Actual Average Record
Temperature  
Mean Temperature 41 °F 43 °F  
Max Temperature 45 °F 53 °F - ()
Min Temperature 36 °F 32 °F - ()
Degree Days  
Heating Degree Days 24 22  
Month to date heating degree days 24 22  
Since 1 July heating degree days 674 843  
Cooling Degree Days 0 0  
Month to date cooling degree days 0 0  
Year to date cooling degree days 308 313  
Moisture  
Dew Point 33 °F    
Average Humidity 75    
Maximum Humidity 92    
Minimum Humidity 57    
Precipitation  
Precipitation 0.00 in 0.11 in - ()
Month to date precipitation 0.00 0.11  
Year to date precipitation 30.81 34.91  
Sea Level Pressure  
Sea Level Pressure 29.93 in    
Wind  
Wind Speed 5 mph (NNW)    
Max Wind Speed 12 mph    
Max Gust Speed 16 mph    
Visibility 10 miles    
Events      
T = Trace of Precipitation, MM = Missing Value Source: NWS Daily Summary

Daily Weather History Graph

Daily Weather History Graph

Search for Another Location

Airport or City:

Trip Planner

Search our weather history database for the weather conditions in past years. The results will help you decide how hot, cold, wet, or windy it might be!

Date:

Astronomy

Nov. 01, 2014 Rise Set
Actual Time 7:27 AM EDT 5:45 PM EDT
Civil Twilight 6:57 AM EDT 6:14 PM EDT
Nautical Twilight 6:24 AM EDT 6:48 PM EDT
Astronomical Twilight 5:51 AM EDT 7:21 PM EDT
Moon 2:45 PM EDT (11/1) 1:10 AM EDT (11/1)
Length of Visible Light 11h 16m
Length of Day
10h 18m
Waxing Gibbous, 67% of the Moon is Illuminated
Nov 1
Waxing Gibbous
Nov 6
Full
Nov 14
Last Quarter
Nov 22
New
Nov 29
First Quarter

Hourly Weather History & Observations

Time (EDT) Temp. Windchill Dew Point Humidity Pressure Visibility Wind Dir Wind Speed Gust Speed Precip Events Conditions
12:54 AM 45.0 °F 41.8 °F 33.1 °F 63% 29.96 in 10.0 mi ESE 5.8 mph - N/A   Overcast
1:54 AM 45.0 °F - 33.1 °F 63% 29.95 in 10.0 mi Calm Calm - N/A   Overcast
2:54 AM 44.1 °F 40.8 °F 33.1 °F 65% 29.95 in 10.0 mi North 5.8 mph - N/A   Overcast
3:54 AM 43.0 °F 41.3 °F 32.0 °F 65% 29.92 in 10.0 mi North 3.5 mph - N/A   Overcast
4:54 AM 44.1 °F - 30.9 °F 60% 29.93 in 10.0 mi Calm Calm - N/A   Overcast
5:54 AM 43.0 °F 38.8 °F 28.9 °F 58% 29.94 in 10.0 mi Variable 6.9 mph - N/A   Overcast
6:54 AM 42.1 °F 39.2 °F 30.0 °F 62% 29.95 in 10.0 mi North 4.6 mph - N/A   Partly Cloudy
7:54 AM 36.0 °F 33.3 °F 30.9 °F 82% 29.96 in 10.0 mi SW 3.5 mph - N/A   Clear
8:54 AM 37.9 °F 35.5 °F 32.0 °F 79% 29.96 in 10.0 mi Variable 3.5 mph - N/A   Scattered Clouds
9:54 AM 39.9 °F 37.8 °F 32.0 °F 73% 29.94 in 10.0 mi NW 3.5 mph - N/A   Mostly Cloudy
10:54 AM 41.0 °F 39.0 °F 32.0 °F 70% 29.95 in 10.0 mi Variable 3.5 mph - N/A   Overcast
11:54 AM 44.1 °F 40.8 °F 32.0 °F 63% 29.93 in 10.0 mi WNW 5.8 mph - N/A   Overcast
12:54 PM 44.1 °F 40.1 °F 33.1 °F 65% 29.91 in 10.0 mi NNW 6.9 mph - N/A   Overcast
1:54 PM 42.1 °F 37.1 °F 32.0 °F 67% 29.91 in 10.0 mi NNW 8.1 mph - N/A   Overcast
2:54 PM 42.1 °F 36.6 °F 32.0 °F 67% 29.89 in 10.0 mi NNE 9.2 mph - N/A   Overcast
3:29 PM 41.0 °F 35.2 °F 33.1 °F 73% 29.88 in 10.0 mi North 9.2 mph - N/A   Overcast
3:54 PM 41.0 °F 36.4 °F 34.0 °F 76% 29.91 in 10.0 mi North 6.9 mph - N/A   Overcast
4:17 PM 39.0 °F 32.8 °F 34.0 °F 82% 29.90 in 10.0 mi NNW 9.2 mph - N/A   Overcast
4:54 PM 37.9 °F 34.4 °F 35.1 °F 89% 29.93 in 4.0 mi NNW 4.6 mph - N/A   Overcast
5:54 PM 37.9 °F 35.5 °F 35.1 °F 89% 29.91 in 10.0 mi North 3.5 mph - N/A   Overcast
6:54 PM 37.9 °F 34.4 °F 35.1 °F 89% 29.92 in 10.0 mi North 4.6 mph - N/A   Overcast
7:05 PM 37.9 °F 32.7 °F 34.0 °F 86% 29.91 in 10.0 mi NNE 6.9 mph - N/A   Overcast
7:54 PM 37.9 °F 34.4 °F 34.0 °F 86% 29.93 in 10.0 mi North 4.6 mph - N/A   Overcast
8:54 PM 37.9 °F 35.5 °F 34.0 °F 86% 29.93 in 10.0 mi NNW 3.5 mph - N/A   Overcast
9:54 PM 37.0 °F 30.4 °F 33.1 °F 86% 29.93 in 10.0 mi NNW 9.2 mph - N/A   Overcast
10:54 PM 37.0 °F 34.5 °F 34.0 °F 89% 29.92 in 10.0 mi North 3.5 mph - N/A   Overcast
11:35 PM 37.0 °F 33.3 °F 33.1 °F 86% 29.91 in 10.0 mi NNW 4.6 mph - N/A   Overcast
11:54 PM 37.0 °F 33.3 °F 33.1 °F 86% 29.93 in 10.0 mi NNW 4.6 mph - N/A   Overcast